Weather History for KNBT - January, 2013

Change the Weather History Date:

Wednesday, January 16, 2013

  Actual Average (KMRH) Record (KMRH)
Temperature  
Mean Temperature 64 °F -  
Max Temperature 75 °F 54 °F 74 °F (1950)
Min Temperature 53 °F 33 °F 14 °F (1972)
Degree Days  
Heating Degree Days 1    
Growing Degree Days 14 (Base 50)    
Moisture  
Dew Point 58 °F    
Average Humidity 89    
Maximum Humidity 100    
Minimum Humidity 62    
Precipitation  
Precipitation 0.00 in - - ()
Sea Level Pressure  
Sea Level Pressure 30.04 in    
Wind  
Wind Speed 4 mph (South)    
Max Wind Speed 21 mph    
Max Gust Speed 33 mph    
Visibility 6 miles    
Events Fog    
Averages and records for this station are not official NWS values.
T = Trace of Precipitation, MM = Missing Value Source: NWS Daily Summary

Daily Weather History Graph

Daily Weather History Graph

Search for Another Location

Airport or City:

Trip Planner

Search our weather history database for the weather conditions in past years. The results will help you decide how hot, cold, wet, or windy it might be!

Date:

Astronomy

Jan. 16, 2013 Rise Set
Actual Time 7:13 AM EST 5:18 PM EST
Civil Twilight 6:45 AM EST 5:46 PM EST
Nautical Twilight 6:14 AM EST 6:17 PM EST
Astronomical Twilight 5:44 AM EST 6:47 PM EST
Moon 10:02 AM EST (1/16) 10:52 PM EST (1/16)
Length of Visible Light 11h 00m
Length of Day
10h 05m
Waxing Crescent, 28% of the Moon is Illuminated
Jan 16
Waxing Crescent
Jan 18
First Quarter
Jan 26
Full
Feb 3
Last Quarter
Feb 10
New

Hourly Weather History & Observations

Time (EST) Temp. Dew Point Humidity Pressure Visibility Wind Dir Wind Speed Gust Speed Precip Events Conditions
12:39 AM 55.4 °F 55.4 °F 100% 30.07 in 8.0 mi Calm Calm - N/A   Overcast
12:56 AM 55.9 °F 55.0 °F 97% 30.09 in 8.0 mi SE 3.5 mph - N/A   Overcast
1:15 AM 55.4 °F 55.4 °F 100% 30.07 in 1.8 mi Calm Calm - N/A   Overcast
1:25 AM 55.4 °F 55.4 °F 100% 30.08 in 0.5 mi Calm Calm - N/A Fog Fog
1:31 AM 55.4 °F 55.4 °F 100% 30.07 in 0.2 mi Calm Calm - N/A Fog Fog
1:56 AM 55.9 °F 55.0 °F 97% 30.08 in 0.2 mi Calm Calm - N/A Fog Fog
2:33 AM 55.4 °F 55.4 °F 100% 30.06 in 0.8 mi Calm Calm - N/A   Mist
2:41 AM 55.4 °F 53.6 °F 94% 30.06 in 1.2 mi Calm Calm - N/A   Overcast
2:56 AM 55.0 °F 54.0 °F 96% 30.07 in 0.8 mi Calm Calm - N/A   Overcast
3:02 AM 53.6 °F 53.6 °F 100% 30.05 in 0.5 mi Calm Calm - N/A Fog Fog
3:28 AM 53.6 °F 53.6 °F 100% 30.04 in 0.5 mi Calm Calm - N/A Fog Fog
3:56 AM 54.0 °F 53.1 °F 97% 30.04 in 0.8 mi Calm Calm - N/A   Mist
4:14 AM 53.6 °F 53.6 °F 100% 30.02 in 0.5 mi Calm Calm - N/A Fog Fog
4:56 AM 55.9 °F 55.0 °F 97% 30.03 in 0.5 mi South 5.8 mph - N/A Fog Fog
5:30 AM 57.2 °F 55.4 °F 94% 30.02 in 1.2 mi South 5.8 mph - N/A   Partly Cloudy
5:52 AM 59.0 °F 57.2 °F 94% 30.02 in 5.0 mi South 4.6 mph - N/A   Clear
5:56 AM 59.0 °F 57.9 °F 96% 30.03 in 6.0 mi South 5.8 mph - N/A   Clear
6:56 AM 61.0 °F 60.1 °F 97% 30.04 in 9.0 mi South 5.8 mph - N/A   Clear
7:56 AM 64.9 °F 62.1 °F 90% 30.05 in 10.0 mi SSW 8.1 mph - N/A   Mostly Cloudy
8:56 AM 66.9 °F 63.0 °F 87% 30.06 in 10.0 mi SSW 8.1 mph - N/A   Clear
9:56 AM 72.0 °F 64.9 °F 78% 30.06 in 10.0 mi SW 10.4 mph - N/A   Partly Cloudy
10:08 AM 71.6 °F 64.4 °F 78% 30.05 in 10.0 mi SW 13.8 mph 19.6 mph N/A   Mostly Cloudy
10:18 AM 73.4 °F 66.2 °F 78% 30.05 in 10.0 mi SW 12.7 mph 19.6 mph N/A   Scattered Clouds
10:56 AM 73.9 °F 66.0 °F 76% 30.05 in 10.0 mi SW 13.8 mph 21.9 mph N/A   Mostly Cloudy
11:56 AM 75.0 °F 64.0 °F 69% 30.01 in 10.0 mi SW 19.6 mph 26.5 mph N/A   Overcast
12:56 PM 75.9 °F 64.0 °F 67% 30.00 in 10.0 mi SSW 18.4 mph 27.6 mph N/A   Clear
1:56 PM 75.9 °F 64.0 °F 67% 29.98 in 10.0 mi SW 20.7 mph 33.4 mph N/A   Clear
2:56 PM 75.9 °F 62.1 °F 62% 29.98 in 10.0 mi SW 18.4 mph 27.6 mph N/A   Clear
3:56 PM 75.0 °F 62.1 °F 64% 29.99 in 10.0 mi SSW 13.8 mph - N/A   Clear
4:56 PM 71.1 °F 62.1 °F 73% 30.00 in 10.0 mi SSW 9.2 mph 18.4 mph N/A   Clear
6:56 PM 55.9 °F 53.1 °F 90% 30.04 in 9.0 mi North 8.1 mph - N/A   Overcast
7:56 PM 57.0 °F 54.0 °F 89% 30.05 in 9.0 mi ESE 3.5 mph - N/A   Overcast
8:56 PM 57.0 °F 54.0 °F 89% 30.04 in 10.0 mi Calm Calm - N/A   Clear
9:17 PM 57.2 °F 55.4 °F 94% 30.03 in 10.0 mi SE 4.6 mph - N/A   Scattered Clouds
9:26 PM 57.2 °F 55.4 °F 94% 30.02 in 10.0 mi SE 4.6 mph - N/A   Mostly Cloudy
9:56 PM 57.0 °F 55.0 °F 93% 30.03 in 10.0 mi SE 5.8 mph - N/A   Mostly Cloudy
10:10 PM 57.2 °F 53.6 °F 88% 30.01 in 9.0 mi SE 4.6 mph - N/A   Scattered Clouds
10:56 PM 55.9 °F 54.0 °F 93% 30.01 in 8.0 mi SSE 4.6 mph - N/A   Clear